This is the latest recevied weather packets stored in our database for station/object N4DWK. If no packets are shown the sender has not sent any weather packets the latest 10 day(s).
| Time | Temp. | Humidity | Pressure | Rain* | Wind** | Luminosity | Snow |
|---|---|---|---|---|---|---|---|
| 1778185506 | 12.22° C | 89% | 1010.9 hPa | 5.59 mm | - | 21 W/m² | - |
| 1778185205 | 12.22° C | 88% | 1010.5 hPa | 5.08 mm | - | 18 W/m² | - |
| 1778184905 | 12.78° C | 88% | 1010.6 hPa | 4.83 mm | - | 19 W/m² | - |
| 1778184605 | 12.78° C | 87% | 1010.6 hPa | 4.32 mm | - | 21 W/m² | - |
| 1778184305 | 12.78° C | 87% | 1010.6 hPa | 3.56 mm | - | 21 W/m² | - |
| 1778184006 | 12.78° C | 85% | 1010.7 hPa | 3.05 mm | - | 23 W/m² | - |
| 1778183705 | 12.78° C | 84% | 1010.7 hPa | 0.51 mm | - | 23 W/m² | - |
| 1778183405 | 12.78° C | 83% | 1011.1 hPa | 0 mm | - | 25 W/m² | - |
| 1778183105 | 12.78° C | 82% | 1010.6 hPa | 0 mm | - | 21 W/m² | - |
| 1778182806 | 13.33° C | 82% | 1010.6 hPa | 0 mm | - | 33 W/m² | - |
| 1778182505 | 13.33° C | 82% | 1010.8 hPa | 0 mm | - | 42 W/m² | - |
| 1778182205 | 13.33° C | 82% | 1010.8 hPa | 0 mm | - | 39 W/m² | - |
| 1778181906 | 13.33° C | 81% | 1010.9 hPa | 0 mm | - | 42 W/m² | - |
| 1778181605 | 13.33° C | 80% | 1010.9 hPa | 0 mm | - | 67 W/m² | - |
| 1778181305 | 13.33° C | 80% | 1011 hPa | 0 mm | - | 65 W/m² | - |
| 1778181005 | 13.33° C | 80% | 1011.1 hPa | 0 mm | - | 39 W/m² | - |
| 1778180705 | 13.33° C | 79% | 1011 hPa | 0 mm | - | 44 W/m² | - |
| 1778180406 | 13.33° C | 78% | 1011 hPa | 0 mm | - | 58 W/m² | - |
| 1778180105 | 13.33° C | 78% | 1011.1 hPa | 0 mm | - | 35 W/m² | - |
| 1778179805 | 13.33° C | 78% | 1010.9 hPa | 0 mm | - | 46 W/m² | - |
| 1778179505 | 13.33° C | 78% | 1011 hPa | 0 mm | - | 51 W/m² | - |
| 1778179205 | 13.33° C | 78% | 1010.9 hPa | 0 mm | - | 51 W/m² | - |
| 1778178906 | 13.33° C | 78% | 1010.9 hPa | 0 mm | - | 53 W/m² | - |
| 1778178606 | 13.33° C | 78% | 1011 hPa | 0 mm | - | 62 W/m² | - |
| 1778178306 | 13.33° C | 78% | 1011.1 hPa | 0 mm | - | 47 W/m² | - |
* Rain latest hour (hover to see other rain measurements)
** Current wind speed in m/s (hover to see current wind gust speed)